Tracking 19847 objects as of 17-Sep-2019
HD Live streaming from Space Station
objects crossing your sky now

OPS 0757 (TACSAT)

Track OPS 0757 (TACSAT) now!
OPS 0757 (TACSAT) is classified as:


NORAD ID: 3691
Int'l Code: 1969-013A
Perigee: 35,665.5 km
Apogee: 35,824.0 km
Inclination: 3.3 °
Period: 1,433.6 minutes
Semi major axis: 42115 km
RCS: 1 m2 (large)
Launch date: February 9, 1969
Source: United States (US)
Launch site: AIR FORCE EASTERN TEST RANGE (AFETR)
aabbcc
Your satellite tracking list
Your tracking list is empty




NASA's NSSDC Master Catalog

Two Line Element Set (TLE):
1  3691U 69013A   19259.82493328 -.00000294 +00000-0 +00000-0 0  9999
2  3691 003.2963 295.1407 0018823 274.0181 176.2570 01.00446828089353
Source of the keplerian elements: AFSPC